This demonstration page uses our WeatherBlox Daily Observations layout. Learn more.

36.17497, -115.13722

Hourly Observations for August 24, 2018

Temp ( °F °C ) Dew Point ( °F °C ) Humidity (%) Winds ( mph kmh ) Pressure ( in mb ) Visibility ( mi km ) Precip ( " mm )
12:53 am 00:53 Clear 89 31.7 39 3.9 17 17 S 9 15 29.81 1010 10 16.0934 0 0
1:53 am 01:53 Clear 88 31.1 38 3.3 17 17 SW 8 13 29.8 1009 10 16.0934 0 0
2:53 am 02:53 Clear 87 30.6 37 2.8 17 17 S 10 17 29.8 1009 10 16.0934 0 0
3:53 am 03:53 Clear 83 28.3 38 3.3 20 20 SSE 5 7 29.81 1009 10 16.0934 0 0
4:53 am 04:53 Clear 82 27.8 40 4.4 22 22 NNW 3 6 29.81 1010 10 16.0934 0 0
5:53 am 05:53 Clear 81 27.2 40 4.4 23 23 Calm 29.83 1010 10 16.0934 0 0
6:53 am 06:53 Sunny 80 26.7 43 6.1 27 27 WNW 3 6 29.85 1011 10 16.0934 0 0
7:53 am 07:53 Sunny 85 29.4 40 4.4 20 20 E 5 7 29.86 1011 10 16.0934 0 0
8:53 am 08:53 Sunny 88 31.1 38 3.3 17 17 SE 9 15 29.86 1011 10 16.0934 0 0
9:53 am 09:53 Sunny 92 33.3 37 2.8 14 14 SE 12 19 29.86 1011 10 16.0934 0 0
10:53 am 10:53 Sunny 95 35 38 3.3 14 14 S 16 26 29.85 1011 10 16.0934 0 0
11:53 am 11:53 Sunny 98 36.7 38 3.3 12 12 S 18 30 29.83 1010 10 16.0934 0 0
12:53 pm 12:53 Sunny 99 37.2 38 3.3 12 12 SSW 16 26 29.8 1009 10 16.0934 0 0
1:53 pm 13:53 Sunny 101 38.3 37 2.8 11 11 SSW 15 24 29.78 1009 10 16.0934 0 0
2:53 pm 14:53 Sunny 101 38.3 37 2.8 11 11 SW 15 24 29.74 1007 10 16.0934 0 0
3:14 pm 15:14 Sunny with Nearby Thunderstorms 101 38.3 36 2.2 10 10 SSW 20 31 29.56 1001 10 16.0934 0 0
3:28 pm 15:28 Sunny with Thunderstorms 100 37.8 34 1.1 10 10 WSW 12 19 29.56 1001 10 16.0934 0 0
3:43 pm 15:43 Sunny 101 38.3 29 -1.7 8 8 SW 18 30 29.56 1001 10 16.0934 0 0
3:53 pm 15:53 Sunny with Nearby Thunderstorms 101 38.3 29 -1.7 8 8 WSW 18 30 29.72 1006 10 16.0934 0 0
4:07 pm 16:07 Sunny 102 38.9 27 -2.8 7 7 WSW 12 19 29.53 1000 10 16.0934 0 0
4:53 pm 16:53 Sunny 101 38.3 23 -5 6 6 SW 20 31 29.7 1006 10 16.0934 0 0
5:53 pm 17:53 Sunny 100 37.8 20 -6.7 5 5 SW 17 28 29.7 1006 10 16.0934 0 0
6:53 pm 18:53 Sunny 97 36.1 21 -6.1 6 6 SSW 12 19 29.71 1006 10 16.0934 0 0
7:53 pm 19:53 Clear 94 34.4 22 -5.6 7 7 S 9 15 29.72 1006 10 16.0934 0 0
8:53 pm 20:53 Clear 92 33.3 23 -5 8 8 S 13 20 29.73 1007 10 16.0934 0 0
9:53 pm 21:53 Clear 91 32.8 21 -6.1 8 8 SSW 14 22 29.75 1008 10 16.0934 0 0
10:53 pm 22:53 Clear 89 31.7 20 -6.7 8 8 SSW 9 15 29.77 1008 10 16.0934 0 0
11:53 pm 23:53 Clear 88 31.1 21 -6.1 8 8 WNW 5 7 29.78 1009 10 16.0934 0 0

Powered by AerisWeather